Location: Beuerbach
(48.1459°N, 10.9174°E)
Time: 00:10:51
(UTC+00:00)

Meteor 1-21 - Pass Details

Date: 10 August 2024
Orbit: 845 x 885 km, 81.2° (Epoch: 09 September)

Event Time Altitude Azimuth Distance (km) Brightness Sun altitude
Rises 00:30:08 0° 348° (NNW) 3,418 8.3 -24.6°
Reaches altitude 10° 00:32:33 10° 348° (NNW) 2,479 7.4 -24.5°
Maximum altitude 00:38:11 89° 268° (W) 855 4.1 -24.1°
Enters shadow 00:39:26 57° 171° (S) 999 4.2 -24.1°
